Regional Weather Roundup
Issued by NWS

Home | Current Version | Previous Version | Graphics & Text | Print | Product List | Glossary On
Versions: 1 2 3 4 5 6 7 8 9 10 11 12 13 14 15 16 17 18 19 20 21 22 23 24 25 26 27 28 29 30 31 32 33 34 35 36 37 38 39 40 41 42 43 44 45 46 47 48 49 50
646
ASUS45 KSLC 092110
RWRUT

UTAH REGIONAL WEATHER ROUNDUP
NATIONAL WEATHER SERVICE SALT LAKE CITY UT
200 PM MST FRI DEC 09 2016

UTZ001>011-023>025-092200-

NORTHERN UTAH

CITY           SKY/WX    TMP DP  RH WIND       PRES   REMARKS
BRIGHAM CITY     N/A     37  32  80 NW6       30.18F WCI  33
HILL AFB       CLOUDY    38  31  77 SE9       30.15F WCI  31
LOGAN          LGT RAIN  35  33  92 NE3       30.17F FOG
OGDEN          CLOUDY    40  34  79 NW9       30.15F WCI  34
SALT LAKE CITY PTSUNNY   42  33  70 N6        30.16F
WENDOVER       PTSUNNY   30  21  69 CALM      30.18F
HEBER CITY     CLOUDY    39  32  75 CALM      30.15F

$$

UTZ011>015-024>027-092200-

CENTRAL/NORTHEAST UTAH

CITY           SKY/WX    TMP DP  RH WIND       PRES   REMARKS
PROVO AIRPORT  MOSUNNY   43  32  65 VRB3      30.19F
MOAB/CANYONLAN MOSUNNY   39  11  31 NW6       30.27F WCI  35
DELTA          PTSUNNY   46  25  42 S5        30.19F
PRICE          MOSUNNY   36   9  32 S7        30.24F WCI  30
RICHFIELD      PTSUNNY   48  27  43 N3        30.21F
ROOSEVELT      CLOUDY    30  16  55 CALM      30.27F
VERNAL         CLOUDY    30  15  53 S5        30.24F WCI  25

$$

UTZ013>016-019>022-027-092200-

SOUTHERN UTAH

CITY           SKY/WX    TMP DP  RH WIND       PRES   REMARKS
BRYCE CANYON   NOT AVBL
CEDAR CITY     MOSUNNY   48  28  46 SW14      30.20F
MILFORD        PTSUNNY   49  24  37 SW20      30.19F
ST GEORGE      PTCLDY    48  23  37 SW3       30.29F
HANKSVILLE     SUNNY     37   9  30 CALM      30.31F
KANAB          SUNNY     50  32  50 S5        30.30F
BLANDING       MOSUNNY   42  21  42 CALM      30.34F

$$

REGIONAL REPORTS     COLORADO/ARIZONA

CITY           SKY/WX    TMP DP  RH WIND       PRES   REMARKS
CRAIG, CO      CLOUDY    37  26  64 NE3       30.21F
GRAND JUNCTION CLOUDY    36  16  44 CALM      30.27F
RIFLE, CO      CLOUDY    32  19  58 CALM      30.30F
MONTROSE, CO   CLOUDY    39  20  46 NW6       30.28F WCI  35
CORTEZ, CO     CLOUDY    46  24  42 NW8       30.28F
COLORADO CITY    N/A     52  32  46 SE3       30.28F
PAGE, AZ       SUNNY     46   8  21 CALM      30.26F
GRAND CANYON   SUNNY     47  36  65 SW5       30.28F
KINGMAN, AZ    MOSUNNY   60  36  40 SW9       30.23F
FLAGSTAFF, AZ  SUNNY     51  34  52 SW9       30.27F

$$

REGIONAL REPORTS    NEVADA/IDAHO/WYOMING

CITY           SKY/WX    TMP DP  RH WIND       PRES   REMARKS
LAS VEGAS, NV  CLOUDY    54  10  17 NE6       30.24F
ELY, NY        CLOUDY    40  18  41 NW3       30.21F
ELKO, NV       PTSUNNY   44  28  53 W5        30.13F
POCATELLO, ID  LGT SNOW  29  25  85 NE6       30.11F WCI  23
FORT BRIDGER,    N/A     42  31  66 W18G26    30.14F
EVANSTON, WY   MOSUNNY   37  29  72 W16G25    30.12F WCI  28
ROCK SPRINGS,  CLOUDY    37  29  72 W26       30.08F WCI  25
KEMMERER, WY     N/A     36  30  80 W20G29    30.10S WCI  25

$$




USA.gov is the U.S. government's official web portal to all federal, state and local government web resources and services.